Weather in Kenora

Canada     49°45′58″N   94°29′15″W
temp.,
°C
wind,
m/s
gust,
m/s
humid.,
%
clouds,
%
prec.,
mm/h
press.,
hPa
HPBL,
m
24 january, mon
mon2401:00−24n2110092 0.3 101329
04:00−25nnw2810084 0.0 1014122
07:00−26nnw3129855 0.0 1017226
10:00−27nw3119519 0.0 1019344
13:00−22nnw4786100 0.0 1021556
16:00−20nw4787100 0.0 1021770
19:00−24wnw3796100 0.0 1023176
22:00−26wnw3897100 0.0 1025204
25 january, tue
tue2501:00−30wnw2410099 0.0 102766
04:00−31nw259972 0.0 102891
07:00−31nw299997 0.0 1030167
10:00−31nw2810093 0.0 1032167
13:00−23nw3587100 0.0 1032529
16:00−20wnw2484100 0.0 1031692
19:00−28sw2210089 0.0 103210
22:00−29sw2510043 0.0 103168
26 january, wed
wed2601:00−28s31197100 0.0 1028197
04:00−25s51693100 0.0 1024385
07:00−22s72185100 0.0 1016522
10:00−16ssw82282100 0.0 1008719
13:00−10ssw71694100 0.7 1004622
16:00−7ssw51294100 0.4 1002523
19:00−6sw51295100 0.5 1002445
22:00−4sw4139696 0.3 1002545
27 january, thu
thu2701:00−6nnw61188100 1.1 1008811
04:00−13nnw61288100 0.1 1016713
07:00−20n512899 0.1 1023484
10:00−23nnw410935 0.0 1029337
13:00−19nnw368558 0.0 1031470
16:00−17nw358174 0.0 1030562
19:00−26wnw11995 0.0 10339
22:00−29w11100100 0.0 103310
28 january, fri
fri2801:00−27sw11100100 0.0 103219
04:00−29s2210066 0.0 103120
07:00−27s13100100 0.0 103054
10:00−21sw129899 0.1 1029116
13:00−15wnw1389100 0.1 1028462
16:00−12wnw2484100 0.1 1027736
19:00−19wnw11100100 0.1 102911
22:00−24nw1110099 0.0 10309